OPS 4682 DEB, 38424

Orbit data source: Space-Track

OPS 4682 DEB, 38424 is space debris in LEO originally from a launch on Sat, 03 Apr 1965 UTC launched from the Air Force Western Test Range (AFWTR). Debris objects in space refer to the collection of defunct objects orbiting the Earth. Examples of debris include non-operational satellites, rocket bodies, and fragments generated from explosions, collisions, or faulty payload assembly.

Loading next visibility...
Identifier
38424, 1965-027ED
Orbit
LEO
Country
Flag of USUS
Related business
Manufacturer
Unknown
Mission
Spacecraft
Bus & Motor
Unknown
Mass
Unknown
Launch date (UTC)
1965-04-03 (61 years ago)
Launch vehicle
Unknown
Launch site
Air Force Western Test Range (AFWTR)
Object type
Payload
Rocket body
Debris
Shape & HBR
Unknown shape, 0.1 m
Radar Cross Section
Small (<0.1 m²)

Expand to show TLE details & history
Last TLE update: 1 week ago

TLE from 1 week ago
0 OPS 4682 DEB
1 38424U 65027ED  25332.31899239  .00001156  00000-0  36090-2 0  9993
2 38424  90.2631   2.4428 0024811 324.0997  35.8459 13.03881814285651
Epoch: 2025-11-28T07:39Z
TLE epoch observation values (Epoch: 2025-11-28T07:39:20.942Z)
Latitude
-0.00006°
Longitude
-179.85772°
Altitude
1,234.482 km
Speed
7.245 km/s
True Right ascension
00h 09m 46s
True Declination
0° 00' 00"
Sunlit
Object was in daylight at epoch
Visualization orbit readout
Latitude
Unknown
Longitude
Unknown
Altitude
Unknown
Speed
Unknown
Apparent Right ascension
Unknown
Apparent Declination
Unknown
Sunlit
N/A
Visualization observer readout
Local Sidereal Time
03:27:29
Azimuth
Unknown
Elevation
Unknown
Doppler factor
Unknown
Orbital elements
Apogee altitude
1,262.948 km
Perigee altitude
1,225.125 km
Semi-major axis
7,622.173 km
Eccentricity
0.00248
Inclination
90.2631°
RAAN
2.4428°
Arg. of periapsis
324.0997°
True anomaly
36.01282°
Mean anomaly
35.8459°
Eccentric anomaly
35.92932°
Mean motion
3.26156 °/min
Orbital period
110.38 mins
BSTAR
0.003609
Loading maneuver chart data...
Computing Atmospheric mass density...
Loading historical data...
Loading historical data...
Loading historical data...
Loading historical data...
Loading historical data...
Loading historical data...
Loading historical data...

Documentation

Showing up to 5 results
|